Location: Proctor
(47.8934°N, 114.3048°W)
Time: 10:18:45
(UTC+00:00)

Transit 4A - Pass Details

Date: 01 July 2024
Orbit: 870 x 973 km, 66.8° (Epoch: 13 July)

Event Time Altitude Azimuth Distance (km) Brightness Sun altitude
Rises 08:04:39 0° 304° (WNW) 3,467 11.3 -18.8°
Reaches altitude 10° 08:09:05 10° 335° (NNW) 2,539 11.0 -18.8°
Maximum altitude 08:11:12 12° 357° (N) 2,412 11.2 -18.7°
Drops below altitude 10° 08:13:20 10° 18° (NNE) 2,555 11.4 -18.7°
Sets 08:17:49 0° 49° (NE) 3,517 11.7 -18.6°
